QPF
0.01 0.00 0.01 0.08 0.09 0.04 0.00 0.00 0.00 0.00 0.00 0.00 0.00 0.00 0.00 0.00 0.00 0.00 0.00 0.00 0.00 0.00 0.00 0.00 0.00 0.00 0.00 0.00 0.00 0.00 0.00 0.00 0.00 0.00 0.00 0.00 0.00 0.00 0.00 0.00 0.00 0.00 0.00
0.00 0.00 0.00 0.00 0.00 0.00 0.00 0.00 0.00 0.00 0.00 0.00 0.00 0.00 0.00 0.00 0.00 0.00 0.00 0.00 0.00 0.00 0.00 0.00 0.00 0.00 0.00 0.00 0.00 0.00 0.00 0.00 0.01 0.00 0.00 0.00 0.01 0.00 0.00 0.00 0.01 0.00 0.01
0.00 0.00 0.00 0.00 0.00 0.00 0.00 0.00 0.00 0.00 0.00 0.00 0.00 0.00 0.00 0.00 0.00 0.00 0.00 0.00 0.00 0.00 0.00 0.00 0.00 0.00 0.00 0.00 0.00 0.00 0.00 0.00 0.01 0.00 0.00 0.00 0.01 0.01 0.01 0.00 0.01 0.01 0.01
0.00 0.00 0.00 0.00 0.00 0.00 0.00 0.00 0.00 0.00 0.00 0.00 0.00 0.00 0.00 0.00 0.00 0.00 0.00 0.00 0.00 0.00 0.00 0.00 0.00 0.00 0.00 0.00 0.00 0.00 0.00 0.00 0.01 0.00 0.00 0.01 0.01 0.01 0.01 0.01 0.01 0.01 0.01
0.00 0.00 0.00 0.00 0.00 0.00 0.00 0.00 0.00 0.00 0.00 0.00 0.00 0.00 0.00 0.00 0.00 0.00 0.00 0.00 0.00 0.00 0.00 0.00 0.00 0.00 0.00 0.00 0.00 0.00 0.00 0.00 0.01 0.01 0.01 0.01 0.01 0.01 0.01 0.01 0.00 0.00 0.00
0.00 0.00 0.00 0.00 0.00 0.00 0.00 0.00 0.00 0.00 0.00 0.00 0.00 0.00 0.00 0.00 0.00 0.00 0.00 0.00 0.00 0.00 0.00 0.00 0.00 0.00 0.00 0.00 0.00 0.00 0.00 0.00 0.01 0.01 0.01 0.01 0.01 0.01 0.00 0.00 0.00 0.00 0.00
0.00 0.00 0.00 0.00 0.00 0.00 0.00 0.00 0.00 0.00 0.00 0.00 0.00 0.00 0.00 0.00 0.00 0.00 0.00 0.00 0.00 0.00 0.00 0.00 0.00 0.00 0.00 0.00 0.00 0.00 0.00 0.00 0.01 0.01 0.01 0.01 0.01 0.01 0.00 0.01 0.01 0.01 0.01
0.00 0.00 0.00 0.00 0.00 0.00 0.00 0.00 0.00 0.00 0.00 0.00 0.00 0.00 0.00 0.00 0.00 0.00 0.00 0.00 0.00 0.00 0.00 0.00 0.00 0.00 0.00 0.00 0.00 0.00 0.00 0.00 0.00 0.01 0.01 0.01 0.01 0.01 0.01 0.01 0.01 0.01 0.01
0.00 0.00 0.00 0.00 0.00 0.00 0.00 0.00 0.00 0.00 0.00 0.00 0.00 0.00 0.00 0.00 0.00 0.00 0.00 0.00 0.00 0.00 0.00 0.00 0.00 0.00 0.00 0.00 0.00 0.00 0.00 0.00 0.00 0.00 0.01 0.01 0.01 0.01 0.01 0.01 0.01 0.01 0.01
0.00 0.00 0.00 0.00 0.00 0.00 0.00 0.00 0.00 0.00 0.00 0.00 0.00 0.00 0.00 0.00 0.00 0.00 0.00 0.00 0.00 0.00 0.00 0.00 0.00 0.00 0.00 0.00 0.00 0.00 0.00 0.00 0.00 0.00 0.00 0.00 0.01 0.01 0.01 0.01 0.01 0.01 0.02
0.00 0.00 0.00 0.00 0.00 0.00 0.00 0.00 0.00 0.00 0.00 0.00 0.00 0.00 0.00 0.00 0.00 0.00 0.00 0.00 0.00 0.00 0.00 0.00 0.00 0.00 0.00 0.00 0.00 0.00 0.00 0.00 0.00 0.00 0.00 0.00 0.00 0.01 0.01 0.01 0.01 0.01 0.02
0.00 0.00 0.00 0.00 0.00 0.00 0.00 0.00 0.00 0.00 0.00 0.00 0.00 0.00 0.00 0.00 0.00 0.00 0.00 0.00 0.00 0.00 0.00 0.00 0.00 0.00 0.00 0.00 0.00 0.00 0.00 0.00 0.00 0.00 0.00 0.00 0.00 0.00 0.01 0.01 0.01 0.01 0.01
0.00 0.00 0.00 0.00 0.00 0.00 0.00 0.00 0.00 0.00 0.00 0.00 0.00 0.00 0.00 0.00 0.00 0.00 0.00 0.00 0.00 0.00 0.00 0.00 0.00 0.00 0.00 0.00 0.00 0.00 0.00 0.00 0.00 0.00 0.00 0.00 0.00 0.00 0.00 0.00 0.00 0.00 0.01
0.00 0.00 0.00 0.00 0.00 0.00 0.00 0.00 0.00 0.00 0.00 0.00 0.00 0.00 0.00 0.00 0.00 0.00 0.00 0.00 0.00 0.00 0.00 0.00 0.00 0.00 0.00 0.00 0.00 0.00 0.00 0.00 0.00 0.00 0.00 0.00 0.00 0.00 0.00 0.00 0.00 0.00 0.00
0.00 0.00 0.00 0.00 0.00 0.00 0.00 0.00 0.00 0.00 0.00 0.00 0.00 0.00 0.00 0.00 0.00 0.00 0.00 0.00 0.00 0.00 0.00 0.00 0.00 0.00 0.00 0.00 0.00 0.00 0.00 0.00 0.00 0.00 0.00 0.00 0.00 0.00 0.00 0.00 0.00 0.00 0.00
0.00 0.00 0.00 0.00 0.00 0.00 0.00 0.00 0.00 0.00 0.00 0.00 0.00 0.00 0.00 0.00 0.00 0.00 0.00 0.00 0.00 0.00 0.00 0.00 0.00 0.00 0.00 0.00 0.00 0.00 0.00 0.00 0.00 0.00 0.00 0.00 0.00 0.00 0.00 0.00 0.00 0.00 0.00
0.00 0.00 0.00 0.00 0.00 0.00 0.00 0.00 0.00 0.00 0.00 0.00 0.00 0.00 0.00 0.00 0.00 0.00 0.00 0.00 0.00 0.00 0.00 0.00 0.00 0.00 0.00 0.00 0.00 0.00 0.00 0.00 0.00 0.00 0.00 0.00 0.00 0.00 0.00 0.00 0.00 0.00 0.00
0.00 0.00 0.00 0.00 0.00 0.00 0.00 0.00 0.00 0.00 0.00 0.00 0.00 0.00 0.00 0.00 0.00 0.00 0.00 0.00 0.00 0.00 0.00 0.00 0.00 0.00 0.00 0.00 0.00 0.00 0.00 0.00 0.00 0.00 0.00 0.00 0.00 0.00 0.00 0.00 0.00 0.00 0.00
0.00 0.00 0.00 0.00 0.00 0.00 0.00 0.00 0.00 0.00 0.00 0.00 0.00 0.00 0.00 0.00 0.00 0.00 0.00 0.00 0.00 0.00 0.00 0.00 0.00 0.00 0.00 0.00 0.00 0.00 0.00 0.00 0.00 0.00 0.00 0.00 0.00 0.00 0.00 0.00 0.00 0.00 0.00
0.00 0.00 0.00 0.00 0.00 0.00 0.00 0.00 0.00 0.00 0.00 0.00 0.00 0.00 0.00 0.00 0.00 0.00 0.00 0.00 0.00 0.00 0.00 0.00 0.00 0.00 0.00 0.00 0.00 0.00 0.00 0.00 0.00 0.00 0.00 0.00 0.00 0.00 0.00 0.00 0.00 0.00 0.00
0.00 0.00 0.00 0.00 0.00 0.00 0.00 0.00 0.00 0.00 0.00 0.00 0.00 0.00 0.00 0.00 0.00 0.00 0.00 0.00 0.00 0.00 0.00 0.00 0.00 0.00 0.00 0.00 0.00 0.00 0.00 0.00 0.00 0.00 0.00 0.00 0.00 0.00 0.00 0.00 0.00 0.00 0.00
0.00 0.00 0.00 0.00 0.00 0.00 0.00 0.00 0.00 0.00 0.00 0.00 0.00 0.00 0.00 0.00 0.00 0.00 0.00 0.00 0.00 0.00 0.00 0.00 0.00 0.00 0.00 0.00 0.00 0.00 0.00 0.00 0.00 0.00 0.00 0.00 0.00 0.00 0.00 0.00 0.00 0.00 0.00
0.00 0.00 0.00 0.00 0.00 0.00 0.00 0.00 0.00 0.00 0.00 0.00 0.00 0.00 0.00 0.00 0.00 0.00 0.00 0.00 0.00 0.00 0.00 0.00 0.00 0.00 0.00 0.00 0.00 0.00 0.00 0.00 0.00 0.00 0.00 0.00 0.00 0.00 0.00 0.00 0.00 0.00 0.00
0.00 0.00 0.00 0.00 0.00 0.00 0.00 0.00 0.00 0.00 0.00 0.00 0.00 0.00 0.00 0.00 0.00 0.00 0.00 0.00 0.00 0.00 0.00 0.00 0.00 0.00 0.00 0.00 0.00 0.00 0.00 0.00 0.00 0.00 0.00 0.00 0.00 0.00 0.00 0.00 0.00 0.00 0.00
0.00 0.00 0.00 0.00 0.00 0.00 0.00 0.00 0.00 0.00 0.00 0.00 0.00 0.00 0.00 0.00 0.00 0.00 0.00 0.00 0.00 0.00 0.00 0.00 0.00 0.00 0.00 0.00 0.00 0.00 0.00 0.00 0.00 0.00 0.00 0.00 0.00 0.00 0.00 0.00 0.00 0.00 0.00
0.00 0.00 0.00 0.00 0.00 0.00 0.00 0.00 0.00 0.00 0.00 0.00 0.00 0.00 0.00 0.00 0.00 0.00 0.00 0.00 0.00 0.00 0.00 0.00 0.00 0.00 0.00 0.00 0.00 0.00 0.00 0.00 0.00 0.00 0.00 0.00 0.00 0.00 0.00 0.00 0.00 0.00 0.00
MSLP
1020.72 1020.77 1020.92 1021.85 1022.78 1022.72 1023.21 1023.60 1024.29 1024.61 1024.68 1024.96 1025.34 1025.65 1025.82 1025.82 1026.05 1026.57 1027.69 1028.05 1027.98 1028.04 1028.20 1028.11 1028.02 1027.91 1027.60 1027.60 1027.29 1027.04 1026.94 1026.85 1026.73 1026.64 1026.43 1026.21 1025.97 1025.68 1025.37 1025.02 1024.68 1024.31 1023.91
1020.95 1021.00 1021.32 1022.44 1023.07 1023.21 1023.58 1024.24 1024.83 1024.81 1025.11 1025.88 1026.23 1026.26 1026.50 1026.63 1026.88 1027.63 1028.14 1028.59 1028.80 1029.02 1029.09 1028.98 1028.81 1028.62 1028.14 1027.85 1027.64 1027.36 1027.31 1027.35 1027.22 1026.80 1026.74 1026.58 1026.40 1026.04 1025.68 1025.23 1024.86 1024.53 1024.20
1021.27 1021.43 1022.13 1022.52 1022.74 1023.34 1024.22 1024.63 1024.60 1025.00 1025.36 1025.98 1026.71 1027.37 1027.74 1027.75 1027.78 1027.72 1027.76 1028.11 1028.78 1029.72 1029.72 1029.75 1029.61 1029.34 1028.85 1028.38 1028.10 1027.82 1027.59 1027.65 1027.43 1027.25 1027.05 1026.90 1026.67 1026.31 1025.94 1025.60 1025.22 1024.88 1024.52
1021.47 1021.44 1021.42 1021.65 1022.26 1023.29 1023.64 1024.08 1024.53 1025.02 1025.49 1026.06 1026.74 1027.23 1027.76 1028.28 1028.39 1028.27 1028.45 1028.23 1027.94 1028.32 1029.71 1030.36 1030.23 1030.02 1029.55 1029.18 1028.80 1028.30 1027.99 1027.92 1027.78 1027.62 1027.46 1027.27 1026.90 1026.63 1026.36 1025.98 1025.59 1025.29 1024.83
1021.75 1021.52 1021.63 1022.01 1022.59 1022.91 1023.40 1023.86 1024.53 1025.15 1025.73 1026.19 1026.91 1027.48 1027.90 1027.95 1028.30 1028.66 1028.79 1029.24 1029.09 1029.02 1029.02 1030.28 1030.50 1030.47 1030.30 1029.98 1029.63 1029.16 1028.70 1028.28 1028.16 1027.95 1027.89 1027.53 1027.22 1026.93 1026.71 1026.34 1025.95 1025.55 1025.08
1021.95 1021.91 1022.05 1022.35 1022.53 1022.83 1023.44 1023.86 1024.80 1025.41 1025.87 1026.53 1027.23 1028.13 1028.60 1028.70 1028.61 1028.86 1028.99 1029.21 1029.54 1029.62 1029.72 1029.89 1029.54 1029.94 1030.53 1030.67 1030.44 1029.99 1029.41 1028.87 1028.56 1028.36 1028.17 1027.80 1027.57 1027.34 1026.96 1026.56 1026.22 1025.74 1025.23
1021.95 1022.05 1022.04 1022.46 1022.49 1022.88 1023.33 1024.16 1024.83 1025.52 1026.37 1027.06 1027.37 1028.35 1028.49 1028.85 1028.78 1028.95 1029.07 1029.22 1029.68 1029.87 1030.09 1029.96 1029.91 1029.85 1029.77 1030.45 1030.83 1030.69 1030.29 1029.62 1029.23 1028.83 1028.55 1028.21 1027.96 1027.63 1027.38 1026.97 1026.49 1026.03 1025.53
1022.12 1022.20 1022.13 1022.35 1022.51 1022.99 1023.90 1024.62 1025.20 1025.65 1026.35 1026.78 1026.64 1027.03 1027.49 1028.41 1028.82 1029.14 1029.15 1029.48 1029.78 1029.65 1030.01 1030.46 1030.57 1030.58 1030.42 1030.29 1030.93 1031.18 1030.99 1030.56 1029.89 1029.38 1028.93 1028.67 1028.36 1028.14 1027.77 1027.31 1026.77 1026.32 1025.73
1022.34 1022.59 1022.53 1022.46 1022.99 1023.58 1024.15 1024.77 1025.07 1025.08 1025.69 1026.39 1026.52 1026.24 1025.99 1025.94 1027.61 1028.83 1029.34 1029.52 1029.91 1029.92 1030.21 1030.45 1030.85 1031.00 1030.90 1030.65 1030.81 1031.21 1031.64 1031.25 1030.58 1029.94 1029.44 1029.09 1028.95 1028.57 1028.18 1027.66 1027.09 1026.62 1026.17
1022.62 1022.69 1022.91 1023.00 1023.36 1023.49 1024.08 1024.58 1024.98 1025.16 1025.30 1025.76 1026.47 1026.60 1026.59 1026.31 1026.17 1027.25 1028.84 1029.53 1029.91 1030.18 1030.70 1030.58 1030.89 1031.03 1031.13 1030.86 1031.32 1032.18 1032.07 1031.71 1031.13 1030.51 1030.02 1029.77 1029.56 1029.19 1028.70 1028.16 1027.59 1027.10 1026.68
1023.01 1023.07 1023.24 1023.42 1023.61 1023.65 1024.00 1024.39 1024.97 1025.19 1025.38 1025.31 1025.84 1026.16 1026.47 1026.51 1026.77 1026.57 1026.75 1028.59 1029.65 1030.14 1030.60 1030.87 1031.05 1030.97 1031.15 1031.30 1031.56 1032.26 1032.39 1032.07 1031.65 1031.11 1030.61 1030.34 1030.10 1029.67 1029.20 1028.67 1028.08 1027.56 1027.15
1023.13 1023.54 1023.62 1023.77 1023.94 1024.13 1024.39 1024.65 1025.10 1025.22 1025.34 1025.65 1025.76 1026.20 1026.20 1026.18 1026.06 1026.49 1026.76 1027.65 1028.12 1029.65 1030.41 1030.84 1031.04 1031.16 1031.27 1031.33 1032.35 1032.77 1032.70 1032.46 1032.21 1031.62 1031.17 1030.84 1030.58 1030.21 1029.78 1029.23 1028.69 1028.16 1027.69
1023.16 1023.79 1023.86 1024.10 1024.18 1024.66 1024.80 1025.12 1025.32 1025.22 1025.48 1025.86 1026.30 1026.39 1026.78 1026.89 1026.96 1026.90 1026.96 1027.42 1027.89 1029.21 1029.91 1030.82 1031.18 1031.29 1031.46 1031.64 1032.39 1032.72 1032.79 1032.77 1032.59 1032.08 1031.71 1031.41 1031.22 1030.85 1030.37 1029.92 1029.45 1028.96 1028.47
1023.01 1023.81 1024.02 1024.28 1024.66 1025.00 1025.12 1025.39 1025.65 1025.54 1025.91 1026.31 1026.80 1027.00 1027.23 1027.48 1027.47 1027.44 1027.21 1027.43 1027.87 1028.55 1029.60 1030.43 1031.10 1031.43 1031.66 1032.20 1032.91 1032.54 1032.49 1032.96 1032.87 1032.55 1032.24 1032.01 1031.77 1031.44 1031.04 1030.59 1030.07 1029.62 1029.16
1023.18 1023.82 1024.06 1024.40 1024.83 1025.15 1025.36 1025.65 1026.02 1026.17 1026.36 1026.82 1027.30 1027.53 1027.65 1028.02 1028.15 1028.17 1028.13 1028.03 1027.81 1027.44 1028.34 1030.19 1030.39 1031.73 1031.82 1031.99 1032.94 1032.12 1032.22 1033.25 1033.05 1032.86 1032.75 1032.59 1032.28 1031.93 1031.57 1031.11 1030.67 1030.22 1029.81
1023.18 1023.75 1024.19 1024.50 1024.87 1025.26 1025.51 1025.89 1026.42 1026.76 1026.80 1027.23 1027.59 1027.90 1028.16 1028.46 1028.64 1028.71 1028.63 1028.57 1028.46 1028.14 1028.33 1029.84 1030.84 1031.71 1032.08 1031.96 1032.76 1032.26 1032.54 1032.86 1033.04 1033.19 1033.07 1032.96 1032.71 1032.37 1032.15 1031.77 1031.31 1030.82 1030.36
1023.20 1023.59 1024.18 1024.42 1024.71 1025.24 1025.61 1026.02 1026.56 1027.18 1027.27 1027.46 1028.00 1028.39 1028.74 1028.83 1028.87 1029.01 1029.11 1029.06 1029.02 1028.74 1028.79 1030.44 1031.04 1031.93 1032.02 1032.07 1032.11 1032.10 1032.03 1031.86 1032.62 1033.27 1033.29 1033.16 1033.02 1032.85 1032.52 1032.11 1031.72 1031.27 1030.89
1023.14 1023.48 1024.15 1024.44 1024.61 1025.16 1025.82 1026.30 1026.70 1027.19 1027.63 1027.78 1028.29 1028.76 1029.02 1029.15 1029.38 1029.44 1029.49 1029.61 1029.68 1029.79 1029.42 1030.04 1031.07 1031.44 1032.05 1032.31 1032.52 1032.02 1031.95 1031.85 1031.91 1033.36 1033.38 1033.31 1033.18 1032.97 1032.72 1032.42 1032.07 1031.68 1031.29
1022.97 1023.42 1024.14 1024.42 1024.77 1025.23 1025.70 1026.40 1026.93 1027.39 1027.91 1028.16 1028.45 1028.83 1029.13 1029.31 1029.47 1029.78 1029.83 1029.96 1030.12 1030.23 1030.34 1030.27 1030.89 1031.62 1031.95 1032.50 1031.93 1031.79 1031.91 1031.89 1031.92 1032.85 1033.11 1033.14 1033.21 1033.01 1032.77 1032.56 1032.24 1031.91 1031.56
1022.70 1023.29 1024.11 1024.49 1024.98 1025.49 1025.79 1026.30 1026.96 1027.52 1028.10 1028.48 1028.76 1028.94 1029.30 1029.39 1029.68 1029.97 1030.18 1030.39 1030.58 1030.55 1030.77 1030.67 1030.95 1031.30 1031.72 1032.49 1032.08 1031.69 1031.46 1031.67 1032.01 1031.88 1032.46 1032.50 1032.72 1032.74 1032.60 1032.43 1032.22 1032.10 1031.83
1022.45 1023.12 1023.97 1024.57 1025.01 1025.51 1025.79 1026.25 1026.78 1027.48 1028.02 1028.64 1029.12 1029.17 1029.72 1030.38 1031.20 1031.16 1030.31 1030.68 1030.83 1030.84 1030.81 1030.78 1030.93 1031.19 1031.60 1031.86 1032.12 1032.12 1032.18 1031.84 1032.21 1032.37 1031.40 1031.32 1031.37 1031.62 1031.91 1031.93 1032.13 1032.26 1032.06
1022.23 1022.98 1023.75 1024.45 1024.99 1025.16 1026.66 1027.03 1026.86 1027.29 1027.89 1028.45 1028.85 1029.18 1030.26 1031.29 1031.71 1032.00 1032.07 1032.08 1031.94 1031.44 1031.27 1030.98 1031.08 1031.15 1031.63 1031.96 1032.22 1032.34 1032.83 1032.42 1032.22 1032.54 1031.87 1031.05 1031.08 1030.87 1031.27 1031.58 1032.56 1032.42 1032.25
1022.00 1022.76 1023.42 1024.21 1024.78 1025.18 1026.73 1027.40 1027.53 1027.09 1027.67 1028.14 1028.57 1029.01 1029.50 1030.22 1030.99 1031.27 1032.49 1032.66 1032.77 1032.67 1032.66 1031.65 1031.33 1031.57 1031.71 1032.11 1032.47 1032.71 1032.79 1032.79 1032.31 1032.47 1032.24 1031.77 1031.44 1031.45 1031.49 1032.10 1032.46 1032.49 1032.34
1021.62 1022.31 1023.06 1023.94 1024.61 1025.30 1026.86 1027.54 1027.74 1027.02 1027.47 1027.97 1028.39 1028.75 1029.08 1030.06 1030.38 1030.66 1031.02 1031.33 1031.54 1031.81 1032.01 1031.86 1031.81 1032.02 1032.20 1032.41 1032.51 1032.80 1032.81 1032.61 1032.47 1032.80 1032.78 1032.34 1032.49 1032.34 1031.84 1031.44 1032.18 1032.33 1032.28
1021.23 1021.81 1022.54 1023.55 1024.26 1025.28 1026.80 1027.45 1027.55 1026.82 1027.26 1027.73 1028.30 1028.63 1028.98 1029.44 1031.04 1031.45 1030.98 1031.15 1031.26 1031.73 1032.94 1033.13 1033.18 1033.32 1033.43 1033.54 1033.36 1032.98 1033.04 1032.85 1032.54 1032.72 1033.15 1032.99 1032.86 1032.62 1032.57 1032.10 1031.72 1031.89 1031.93
1020.64 1021.35 1022.02 1023.15 1023.84 1024.55 1026.48 1027.03 1027.03 1026.48 1026.92 1027.29 1028.00 1028.50 1029.66 1029.30 1031.12 1031.67 1030.96 1030.87 1031.04 1031.46 1031.82 1032.19 1032.60 1033.23 1033.25 1033.10 1033.51 1033.01 1033.06 1032.92 1032.96 1033.00 1032.96 1033.13 1033.07 1032.74 1032.36 1031.89 1031.64 1031.78 1031.69
Thickness
5673 5673 5671 5662 5657 5656 5653 5650 5644 5640 5637 5632 5627 5623 5620 5618 5613 5607 5597 5592 5587 5583 5578 5575 5571 5568 5568 5564 5563 5562 5560 5557 5554 5550 5548 5545 5542 5540 5538 5535 5533 5531 5529
5669 5669 5666 5657 5652 5650 5647 5642 5636 5633 5628 5620 5614 5612 5608 5605 5601 5593 5586 5580 5576 5570 5566 5564 5561 5559 5560 5559 5557 5556 5553 5549 5546 5544 5542 5538 5534 5532 5529 5527 5524 5520 5517
5663 5662 5656 5653 5649 5644 5638 5634 5631 5626 5621 5615 5608 5600 5594 5592 5587 5584 5581 5576 5569 5560 5557 5554 5552 5552 5551 5551 5549 5548 5546 5541 5539 5537 5534 5530 5526 5523 5520 5516 5513 5510 5507
5659 5658 5657 5654 5648 5641 5637 5632 5626 5621 5616 5610 5602 5595 5587 5580 5576 5575 5570 5569 5568 5562 5553 5546 5545 5543 5543 5542 5540 5540 5539 5536 5533 5529 5525 5521 5518 5513 5509 5506 5503 5499 5497
5653 5654 5651 5647 5642 5638 5633 5628 5622 5615 5609 5604 5596 5587 5580 5576 5570 5566 5562 5557 5557 5556 5553 5544 5540 5537 5534 5533 5531 5531 5530 5529 5525 5521 5516 5514 5509 5504 5500 5496 5493 5489 5486
5646 5646 5644 5641 5638 5634 5629 5624 5615 5609 5604 5597 5588 5577 5571 5565 5564 5560 5557 5554 5552 5550 5546 5542 5541 5536 5530 5525 5523 5522 5522 5521 5518 5513 5508 5505 5499 5494 5491 5487 5483 5479 5475
5642 5641 5640 5636 5634 5630 5626 5619 5612 5604 5595 5587 5583 5572 5569 5564 5562 5557 5556 5553 5548 5544 5541 5538 5535 5533 5530 5523 5517 5515 5512 5511 5508 5505 5500 5495 5490 5486 5481 5477 5472 5468 5462
5636 5636 5635 5632 5630 5626 5618 5611 5606 5600 5593 5588 5585 5579 5572 5565 5560 5555 5553 5548 5544 5543 5538 5532 5529 5526 5523 5520 5513 5508 5504 5501 5499 5495 5491 5486 5481 5475 5470 5465 5460 5454 5449
5630 5628 5628 5627 5623 5618 5612 5606 5603 5602 5595 5588 5585 5586 5583 5584 5567 5555 5549 5546 5542 5539 5535 5531 5525 5521 5518 5515 5510 5504 5496 5493 5490 5486 5482 5477 5470 5465 5459 5453 5447 5440 5433
5624 5623 5621 5620 5616 5615 5610 5605 5599 5598 5596 5589 5583 5579 5577 5578 5576 5565 5551 5544 5540 5537 5531 5528 5522 5518 5514 5511 5504 5495 5489 5485 5481 5477 5472 5466 5459 5453 5447 5441 5433 5426 5418
5618 5617 5615 5614 5611 5609 5607 5602 5597 5594 5592 5591 5584 5580 5575 5573 5569 5569 5568 5551 5540 5534 5529 5523 5519 5516 5511 5505 5498 5489 5482 5477 5472 5467 5462 5456 5449 5443 5435 5428 5421 5413 5405
5613 5610 5609 5608 5606 5602 5600 5596 5591 5590 5589 5586 5584 5578 5575 5573 5572 5567 5564 5556 5552 5537 5528 5522 5517 5512 5507 5502 5490 5482 5476 5470 5464 5459 5453 5447 5439 5431 5423 5415 5407 5400 5392
5609 5604 5604 5602 5600 5595 5593 5589 5586 5587 5585 5581 5576 5574 5569 5566 5563 5562 5560 5555 5551 5538 5530 5519 5513 5508 5502 5496 5485 5478 5471 5463 5457 5451 5444 5437 5428 5420 5411 5403 5395 5388 5381
5607 5600 5598 5596 5593 5589 5588 5584 5580 5582 5579 5575 5569 5566 5563 5559 5557 5556 5557 5553 5548 5541 5531 5520 5511 5504 5497 5489 5479 5475 5468 5458 5450 5443 5435 5427 5418 5410 5401 5392 5385 5378 5371
5601 5596 5595 5591 5587 5584 5582 5579 5575 5575 5573 5568 5562 5559 5557 5552 5549 5548 5547 5546 5547 5550 5541 5521 5515 5499 5493 5486 5475 5472 5464 5452 5444 5436 5427 5418 5409 5400 5392 5384 5377 5370 5361
5597 5593 5590 5586 5583 5579 5577 5573 5568 5564 5565 5561 5556 5553 5549 5545 5543 5541 5540 5540 5539 5540 5538 5520 5508 5496 5488 5482 5472 5467 5458 5449 5439 5429 5421 5411 5402 5393 5383 5375 5368 5361 5353
5594 5591 5586 5583 5581 5576 5573 5568 5563 5557 5557 5555 5550 5546 5541 5539 5539 5536 5534 5533 5532 5532 5530 5511 5502 5491 5485 5478 5471 5464 5456 5449 5437 5424 5415 5405 5395 5385 5376 5368 5361 5353 5345
5590 5588 5582 5579 5578 5572 5566 5561 5558 5553 5549 5549 5544 5539 5536 5534 5531 5530 5528 5526 5523 5520 5521 5513 5499 5492 5481 5473 5465 5460 5453 5445 5435 5420 5410 5400 5390 5380 5371 5363 5355 5347 5340
5588 5584 5577 5575 5573 5568 5563 5556 5551 5547 5543 5542 5539 5535 5532 5530 5528 5524 5523 5520 5517 5514 5510 5507 5498 5486 5478 5468 5465 5457 5449 5440 5431 5418 5409 5398 5386 5377 5368 5359 5351 5343 5335
5586 5581 5573 5569 5565 5560 5558 5553 5547 5542 5537 5534 5533 5531 5527 5525 5522 5519 5517 5514 5510 5508 5503 5500 5493 5485 5477 5464 5459 5455 5449 5438 5428 5420 5409 5398 5387 5375 5366 5357 5349 5339 5330
5583 5577 5569 5564 5560 5555 5553 5549 5545 5538 5533 5528 5526 5525 5520 5516 5513 5510 5512 5509 5506 5504 5501 5497 5490 5483 5473 5465 5456 5449 5440 5436 5425 5414 5411 5402 5393 5381 5367 5357 5346 5336 5327
5580 5573 5566 5560 5556 5554 5548 5544 5542 5536 5531 5526 5524 5521 5514 5508 5505 5502 5500 5499 5496 5499 5496 5493 5486 5480 5469 5461 5452 5445 5432 5428 5423 5411 5406 5402 5390 5382 5368 5357 5343 5334 5325
5577 5570 5565 5558 5554 5552 5544 5539 5537 5534 5529 5525 5522 5519 5515 5508 5503 5499 5492 5489 5487 5484 5481 5482 5479 5471 5465 5456 5447 5439 5431 5422 5419 5409 5402 5394 5387 5377 5366 5354 5344 5334 5324
5573 5568 5563 5556 5552 5549 5540 5535 5533 5531 5526 5522 5519 5516 5513 5505 5501 5498 5493 5490 5485 5481 5476 5473 5469 5462 5456 5449 5443 5435 5427 5421 5415 5405 5396 5391 5380 5371 5364 5356 5345 5335 5325
5571 5567 5562 5554 5550 5546 5536 5531 5528 5529 5524 5520 5515 5511 5508 5504 5495 5491 5489 5486 5482 5476 5468 5463 5458 5453 5447 5441 5435 5430 5422 5416 5412 5404 5392 5385 5377 5369 5360 5352 5345 5337 5328
5569 5564 5560 5550 5547 5546 5533 5530 5526 5527 5522 5519 5512 5507 5501 5500 5492 5485 5486 5483 5479 5473 5466 5461 5455 5447 5443 5438 5431 5426 5419 5412 5405 5398 5392 5383 5374 5368 5361 5354 5347 5337 5329